www.pogodaiklimat.ru

Погода и климат >> Архив погоды >> Великобритания >> South Uist Range


ПОГОДА в South Uist Range

  • Прогноз погоды в South Uist Range
  • Монитор погоды в South Uist Range
  • Климат города

АРХИВ ПОГОДЫ в South Uist Range

Время (UTC), дата Ветер
(напр.,м/с)
 
Видим.   Явления Облачность Т
(С)
Тd
(С)
f
(%)
Тe
(С)
Тes
(С)
Комфортность P
(гПа)
Po
(гПа)
Тmin
(С)
Tmax
(С)
R
(мм)
R24
(мм)
S
(см)
23 13.09 ЮЗ 12
{16}
13 км в посл. час дождь н/о +12.1 +10.2 88 +8 +8 1008.2 1007.7
22 13.09 ЮЗ 9
{13}
6000 м ливневой дождь н/о +11.6 +9.9 89 +8 +8 1009.2 1008.7
00 14.09 ЮЗ 13
{17}
8000 м дым н/о +12.5 +10.3 86 +9 +9 1007.7 1007.2 0.2
01 14.09 ЮЗ 12
{17}
11 км н/о +12.4 +10.1 86 +8 +8 1007.0 1006.5
02 14.09 ЮЗ 9
{17}
15 км в посл. час дождь н/о +10.6 +9.2 91 +6 +6 1006.9 1006.4
03 14.09 З 10
{13}
15 км н/о +11.6 +9.7 88 +8 +8 1006.4 1005.9
05 14.09 З 9
{16}
21 км в посл. час дождь н/о +10.7 +7.1 78 +7 +7 1006.9 1006.4
04 14.09 З 10
{14}
30 км в посл. час дождь н/о +11.4 +8.6 83 +7 +7 1006.3 1005.8
06 14.09 З 10
{15}
29 км н/о +10.6 +5.8 72 +6 +6 1007.4 1006.9 +10.0 2
07 14.09 З 10
{13}
22 км н/о +10.5 +6.0 74 +6 +6 1008.1 1007.6
08 14.09 З 9
{13}
35 км н/о +10.9 +5.9 71 +7 +7 1008.8 1008.4
09 14.09 З 9
{13}
35 км в посл. час дождь н/о +11.2 +5.2 67 +8 +8 1009.4 1009.0
11 14.09 З 7 40 км н/о +11.6 +6.1 69 +9 +9 1010.2 1009.7
10 14.09 З 8 25 км н/о +11.0 +5.3 68 +8 +8 1009.9 1009.5
12 14.09 З 8 13 км н/о +12.2 +6.4 68 +9 +9 1010.4 1009.9 0.0
13 14.09 З 7 22 км н/о +12.8 +7.5 70 +10 +10 1010.6 1010.1
14 14.09 З 9 29 км н/о +13.0 +6.7 66 +10 +10 1010.9 1010.4
15 14.09 З 8 26 км н/о +12.9 +6.3 64 +10 +10 1011.3 1010.8
17 14.09 З 8 20 км н/о +12.2 +6.5 68 +9 +9 1012.0 1011.5
16 14.09 З 8 27 км н/о +12.3 +5.6 64 +9 +9 1011.6 1011.1
18 14.09 З 7 17 км н/о +11.3 +6.3 71 +8 +8 1012.4 1011.9 +13.7 0.0
19 14.09 З 6 35 км н/о +10.6 +6.3 75 +7 +7 1012.9 1012.4
20 14.09 З 6 30 км н/о +10.5 +6.7 77 +7 +7 1013.7 1013.2
21 14.09 З 6 23 км н/о +10.8 +7.1 78 +8 +8 1014.0 1013.5
23 14.09 З 7 18 км в посл. час дождь н/о +10.9 +6.6 75 +8 +8 1014.5 1014.0
22 14.09 ЮЗ 5 18 км в посл. час дождь н/о +9.9 +7.3 84 +7 +7 1014.3 1013.8
00 15.09 З 7 29 км в посл. час дождь н/о +10.7 +6.3 74 +7 +7 1014.7 1014.2 0.0
01 15.09 З 7 26 км в посл. час дождь н/о +10.6 +6.2 74 +7 +7 1014.7 1014.3
02 15.09 З 7 26 км н/о +10.9 +6.3 73 +8 +8 1014.7 1014.3
03 15.09 З 7 29 км н/о +10.8 +6.1 73 +7 +7 1014.7 1014.2
05 15.09 ЮЗ 8 30 км н/о +10.8 +5.8 71 +7 +7 1014.8 1014.4
04 15.09 З 7 29 км н/о +10.8 +6.0 72 +8 +8 1014.8 1014.3
06 15.09 ЮЗ 8 18 км н/о +11.2 +5.5 68 +8 +8 1014.7 1014.2 +9.7 0.0
07 15.09 ЮЗ 6 20 км н/о +10.3 +6.5 77 +7 +7 1014.9 1014.4
08 15.09 Ю 4 26 км сильн. ливневой дождь н/о +9.8 +7.9 88 +7 +7 1015.1 1014.6
09 15.09 ЮЗ 7 45 км в посл. час дождь н/о +11.8 +8.1 78 +9 +9 1015.0 1014.5
11 15.09 ЮЗ 8 30 км н/о +12.2 +8.0 75 +9 +9 1015.1 1014.6
10 15.09 ЮЗ 7 15 км н/о +12.4 +8.1 75 +10 +10 1015.2 1014.7
12 15.09 ЮЗ 8 30 км н/о +12.9 +7.4 69 +10 +10 1015.0 1014.6 0.6
13 15.09 ЮЗ 8 40 км н/о +13.4 +9.1 75 +11 +11 1014.5 1014.0
14 15.09 Ю 8 35 км в посл. час дождь н/о +12.8 +10.0 83 +10 +10 1014.1 1013.7
15 15.09 Ю 8 30 км н/о +13.2 +10.2 82 +10 +10 1013.5 1013.0
17 15.09 Ю 8 11 км слаб. дождь н/о +12.3 +11.2 93 +9 +9 1011.7 1011.2
16 15.09 Ю 8 28 км слаб. ливневой дождь н/о +12.5 +10.9 90 +9 +9 1012.6 1012.1
18 15.09 Ю 8 19 км слаб. дождь н/о +11.6 +10.7 94 +8 +8 1010.7 1010.2 +13.6 2
19 15.09 Ю 7 12 км дождь н/о +11.7 +11.0 95 +8 +8 1009.7 1009.3
20 15.09 Ю 7 8000 м слаб. дождь н/о +11.5 +10.8 95 +8 +8 1008.5 1008.1
21 15.09 Ю 7 4100 м дождь н/о +12.0 +11.2 95 +9 +9 1006.8 1006.3
23 15.09 ЮВ 14
{19}
4000 м сильн. дождь н/о +12.6 +11.2 91 +8 +8 1002.0 1001.5
22 15.09 Ю 11
{14}
6000 м дождь н/о +12.5 +11.5 94 +9 +9 1005.0 1004.5
00 16.09 ЮВ 15-22
{23}
3700 м слаб. дождь н/о +12.8 +11.5 92 +9 +9 999.0 998.5 13
01 16.09 Ю 14-19
{23}
3400 м дождь н/о +13.2 +12.8 97 +9 +9 997.1 996.7
02 16.09 Ю 14-19
{22}
1600 м дождь н/о +13.6 +13.3 98 +10 +10 995.4 995.0
03 16.09 ЮЗ 13
{21}
3500 м в посл. час дождь н/о +13.6 +13.1 97 +10 +10 994.8 994.3
05 16.09 З 17
{23}
9000 м дым н/о +13.2 +11.2 88 +9 +9 996.9 996.4
04 16.09 ЮЗ 14-19
{19}
9000 м в посл. час дождь н/о +13.2 +12.2 94 +9 +9 994.8 994.3
06 16.09 З 15 9000 м дым н/о +12.7 +10.5 86 +9 +9 999.3 998.8 +11.3 16
07 16.09 З 13
{19}
11 км н/о +12.2 +10.1 87 +8 +8 1001.1 1000.6
08 16.09 З 13
{18}
14 км н/о +12.0 +8.6 80 +8 +8 1002.2 1001.7
09 16.09 З 12
{19}
18 км н/о +12.2 +6.7 69 +8 +8 1003.2 1002.7
11 16.09 З 11
{15}
22 км н/о +12.3 +6.7 69 +9 +9 1004.5 1004.0
10 16.09 З 11
{16}
14 км дым н/о +12.4 +7.0 70 +9 +9 1003.7 1003.2
12 16.09 З 12
{15}
28 км н/о +11.9 +7.9 76 +8 +8 1005.3 1004.8 0.2
13 16.09 ЮЗ 11
{15}
18 км н/о +12.6 +8.2 75 +9 +9 1005.9 1005.4
14 16.09 ЮЗ 10
{15}
23 км н/о +12.5 +7.1 70 +9 +9 1006.2 1005.7
15 16.09 ЮЗ 10
{14}
24 км н/о +12.1 +7.7 74 +8 +8 1006.3 1005.8
17 16.09 ЮЗ 12
{15}
9000 м н/о +11.9 +8.0 77 +8 +8 1006.6 1006.1
16 16.09 ЮЗ 12
{16}
40 км н/о +12.2 +7.8 74 +8 +8 1006.2 1005.7
18 16.09 ЮЗ 10
{15}
13 км в посл. час дождь н/о +11.8 +9.1 84 +8 +8 1006.6 1006.1 +13.1 0.2
19 16.09 ЮЗ 10
{15}
28 км в посл. час дождь н/о +11.7 +8.8 82 +8 +8 1006.6 1006.1
20 16.09 ЮЗ 11
{15}
14 км в посл. час дождь н/о +11.5 +9.2 86 +7 +7 1007.0 1006.5
21 16.09 ЮЗ 10
{14}
15 км в посл. час дождь н/о +11.0 +9.8 92 +7 +7 1006.4 1005.9
23 16.09 ЮЗ 11
{14}
18 км н/о +11.5 +9.2 86 +7 +7 1006.5 1006.0
22 16.09 ЮЗ 7 15 км в посл. час дождь н/о +10.9 +10.1 95 +7 +7 1006.4 1006.0
00 17.09 ЮЗ 10
{14}
8000 м дым н/о +11.7 +9.5 86 +8 +8 1006.6 1006.1 0.8
01 17.09 ЮЗ 9
{14}
10 км в посл. час дождь н/о +11.6 +9.6 88 +8 +8 1006.7 1006.2
02 17.09 ЮЗ 10
{13}
18 км н/о +11.8 +8.9 82 +8 +8 1006.6 1006.1
03 17.09 ЮЗ 7 14 км н/о +11.8 +9.6 86 +9 +9 1006.2 1005.7
05 17.09 Ю 5 13 км дымка н/о +10.5 +9.9 96 +8 +8 1005.5 1005.0
04 17.09 Ю 5 13 км н/о +10.3 +8.5 89 +7 +7 1005.6 1005.1
06 17.09 Ю 5 12 км дымка н/о +11.3 +10.4 94 +8 +8 1005.4 1004.9 +9.8 1
07 17.09 Ю 7 4400 м слаб. ливневой дождь н/о +11.5 +10.8 95 +8 +8 1005.1 1004.7
08 17.09 Ю 6 12 км слаб. дождь н/о +11.7 +11.1 96 +9 +9 1004.6 1004.1
09 17.09 Ю 9 4400 м дождь н/о +12.8 +12.3 97 +9 +9 1003.8 1003.3
11 17.09 Ю 7 5000 м дождь н/о +12.8 +12.1 96 +10 +10 1002.4 1001.9
10 17.09 Ю 7 5000 м слаб. дождь н/о +12.9 +12.5 97 +10 +10 1003.3 1002.8
12 17.09 Ю 7 13 км дождь н/о +12.7 +12.0 96 +10 +10 1001.4 1000.9 6
13 17.09 Ю 7 6000 м дождь н/о +12.3 +11.5 95 +9 +9 1000.6 1000.1
14 17.09 Ю 7 7000 м дождь н/о +12.1 +11.0 93 +9 +9 998.6 998.2
15 17.09 ЮВ 8 5000 м дождь н/о +12.9 +11.9 94 +10 +10 996.1 995.6
17 17.09 Ю 12
{19}
6000 м дождь н/о +14.6 +13.9 96 +12 +12 991.7 991.3
16 17.09 Ю 13-19
{19}
5000 м слаб. дождь н/о +13.6 +12.7 94 +10 +10 993.4 992.9
18 17.09 Ю 13
{20}
1700 м дождь н/о +14.9 +14.4 97 +12 +12 990.9 990.5 +15.0 21
19 17.09 Ю 11
{19}
2300 м дождь н/о +15.0 +14.6 97 +12 +12 990.7 990.3
20 17.09 ЮЗ 12
{17}
5000 м в посл. час дождь н/о +14.6 +14.2 97 +12 +12 990.8 990.4
21 17.09 ЮЗ 10
{15}
1500 м дымка н/о +13.9 +13.6 98 +11 +11 990.8 990.3
23 17.09 СЗ 7 50 км н/о +12.4 +12.1 98 +9 +9 992.7 992.2
22 17.09 З 6
{13}
7000 м дымка н/о +13.2 +13.0 99 +11 +11 991.6 991.2
00 18.09 СЗ 6 9000 м дымка н/о +12.2 +11.7 97 +9 +9 993.5 993.0 2
01 18.09 СЗ 5 17 км н/о +12.2 +11.4 95 +10 +10 994.4 993.9
02 18.09 С 4 50 км н/о +12.0 +10.8 92 +10 +10 994.7 994.3
03 18.09 С 4 29 км н/о +11.7 +10.7 94 +10 +10 994.7 994.3
05 18.09 С 4 30 км н/о +10.4 +9.4 94 +8 +8 994.2 993.8
04 18.09 С 4 30 км н/о +11.8 +10.6 92 +9 +9 994.4 993.9
06 18.09 С 4 15 км н/о +10.2 +9.7 97 +8 +8 994.0 993.5 +9.8 2
07 18.09 С 5 40 км н/о +10.5 +9.9 96 +8 +8 993.7 993.2
08 18.09 С 4 28 км н/о +11.3 +10.3 94 +9 +9 993.6 993.1
09 18.09 С 4 40 км н/о +12.0 +10.7 92 +10 +10 993.5 993.0
11 18.09 СВ 4 30 км н/о +12.8 +10.4 85 +11 +11 992.8 992.3
10 18.09 С 4 50 км н/о +12.5 +10.3 86 +10 +10 993.0 992.6
12 18.09 СЗ 3 45 км н/о +12.7 +10.2 85 +11 +11 992.5 992.1
13 18.09 З 1 28 км н/о +12.7 +9.6 81 +13 +13 992.8 992.3
14 18.09 ЮЗ 5 23 км н/о +12.1 +10.6 91 +10 +10 993.3 992.8
15 18.09 Ю 4 21 км н/о +12.9 +10.2 84 +11 +11 992.5 992.1
17 18.09 Ю 8 35 км в посл. час дождь н/о +12.0 +11.1 94 +9 +9 991.7 991.2
16 18.09 Ю 7 9000 м н/о +12.7 +10.4 86 +10 +10 992.5 992.0
18 18.09 Ю 11
{15}
35 км н/о +13.0 +11.9 93 +9 +9 991.0 990.5 +13.7 0.6
19 18.09 Ю 11
{15}
9000 м дым н/о +13.0 +11.4 90 +9 +9 990.9 990.4
20 18.09 Ю 12
{16}
6000 м дым н/о +13.0 +10.4 84 +9 +9 990.6 990.1
21 18.09 ЮЗ 13
{17}
17 км слаб. ливневой дождь н/о +11.6 +9.2 85 +7 +7 990.4 989.9
23 18.09 ЮЗ 17-27
{27}
8000 м слаб. ливневой дождь н/о +10.1 +7.7 85 +4 +4 989.2 988.8
22 18.09 ЮЗ 13-20
{20}
10 км сильн. ливневой дождь н/о +11.1 +8.9 86 +7 +7 989.8 989.3
00 19.09 ЮЗ 15
{20}
21 км в посл. час дождь н/о +11.3 +7.5 77 +7 +7 989.2 988.7 2
01 19.09 ЮЗ 15
{22}
12 км в посл. час дождь н/о +11.4 +8.5 82 +7 +7 990.3 989.9
02 19.09 ЮЗ 13
{19}
12 км н/о +11.7 +7.3 74 +7 +7 990.7 990.3
03 19.09 ЮЗ 13-19
{21}
13 км н/о +11.5 +7.9 79 +7 +7 990.5 990.1
05 19.09 ЮЗ 15
{20}
15 км н/о +11.8 +7.5 75 +7 +7 990.2 989.7
04 19.09 ЮЗ 14
{21}
9000 м н/о +11.9 +8.4 79 +8 +8 990.4 989.9
06 19.09 Ю 11
{18}
13 км н/о +11.5 +8.3 81 +7 +7 989.0 988.5 +9.9 2
07 19.09 Ю 8
{15}
26 км н/о +11.3 +8.6 83 +8 +8 987.2 986.7
08 19.09 Ю 12-17
{17}
7000 м ливневой дождь н/о +9.4 +7.4 87 +4 +4 985.4 984.9
09 19.09 ЮВ 8
{16}
9000 м слаб. дождь со снегом н/о +8.4 +6.4 87 +4 +4 981.8 981.3
11 19.09 Ю 10
{20}
10 км в посл. час дождь н/о +11.7 +9.2 85 +8 +8 974.6 974.2
10 19.09 В 12
{16}
4400 м дождь н/о +9.7 +9.1 96 +4 +4 976.9 976.4
12 19.09 СЗ 16-23
{23}
2200 м слаб. ливневой дождь н/о +8.9 +7.8 93 +3 +3 977.1 976.6 11
13 19.09 З 15
{22}
16 км в посл. час дождь н/о +10.6 +8.8 89 +5 +5 981.5 981.0
14 19.09 З 17
{21}
11 км дым н/о +11.7 +6.7 71 +7 +7 984.5 984.1
15 19.09 З 16
{22}
5000 м дым н/о +11.0 +7.9 81 +6 +6 986.7 986.2
17 19.09 ЮЗ 17-23
{23}
2600 м слаб. ливневой дождь н/о +10.7 +8.1 84 +5 +5 988.9 988.5
16 19.09 З 16-22
{26}
11 км в посл. час дождь н/о +11.6 +8.1 79 +7 +7 987.8 987.3
18 19.09 ЮЗ 15-21
{24}
16 км в посл. час дождь н/о +11.3 +7.7 78 +7 +7 989.9 989.4 +13.2 12
19 19.09 ЮЗ 19
{23}
15 км в посл. час дождь н/о +11.1 +7.3 77 +6 +6 990.8 990.3
20 19.09 ЮЗ 18-24
{24}
12 км в посл. час дождь н/о +11.4 +7.2 75 +6 +6 991.5 991.0
21 19.09 ЮЗ 17
{23}
12 км н/о +11.4 +7.7 78 +6 +6 992.2 991.7
23 19.09 ЮЗ 18-23
{24}
10 км н/о +11.4 +7.0 74 +6 +6 992.8 992.4
22 19.09 ЮЗ 16
{22}
16 км в посл. час дождь н/о +11.4 +7.3 76 +7 +7 992.5 992.0
00 20.09 ЮЗ 17-23
{23}
10 км н/о +11.0 +6.8 75 +6 +6 993.2 992.8 0.2
01 20.09 ЮЗ 19-24
{24}
12 км н/о +11.4 +5.8 68 +6 +6 993.6 993.1
02 20.09 ЮЗ 17-23
{24}
11 км в посл. час дождь н/о +11.3 +7.0 75 +6 +6 994.1 993.6
03 20.09 З 17-23
{25}
9000 м дым н/о +10.7 +7.1 78 +5 +5 994.5 994.0
05 20.09 ЮЗ 20
{25}
8000 м дым н/о +11.0 +6.9 76 +6 +6 994.6 994.1
04 20.09 ЮЗ 18-25
{25}
5000 м дым н/о +10.9 +6.8 76 +6 +6 994.5 994.1
06 20.09 ЮЗ 19 11 км дым н/о +10.9 +6.2 73 +6 +6 994.7 994.2 +9.9 0.4
07 20.09 ЮЗ 18-23
{26}
7000 м в посл. час дождь н/о +10.5 +8.4 87 +5 +5 995.3 994.8
08 20.09 ЮЗ 19-25
{26}
8000 м н/о +10.8 +7.7 81 +5 +5 996.0 995.6
09 20.09 З 17-23
{24}
5000 м дым н/о +10.4 +8.0 85 +5 +5 996.8 996.3
11 20.09 З 14
{19}
14 км в посл. час дождь н/о +11.7 +8.3 80 +7 +7 998.1 997.6
10 20.09 З 15
{23}
13 км н/о +11.6 +8.6 82 +7 +7 997.6 997.1
12 20.09 ЮЗ 11
{17}
22 км н/о +12.7 +9.7 82 +9 +9 998.4 997.9 0.4
13 20.09 ЮЗ 10
{14}
12 км слаб. морось с дождем н/о +11.7 +10.2 91 +8 +8 998.8 998.4
14 20.09 ЮЗ 11
{16}
10 км слаб. морось н/о +10.8 +9.7 93 +6 +6 999.1 998.7
15 20.09 ЮЗ 10
{15}
16 км в посл. час морось н/о +11.6 +8.6 82 +8 +8 998.4 997.9
17 20.09 ЮЗ 10
{14}
13 км н/о +11.3 +7.7 78 +7 +7 997.2 996.7
16 20.09 ЮЗ 10
{13}
14 км н/о +11.4 +8.3 81 +8 +8 998.0 997.5
18 20.09 З 9 14 км н/о +11.2 +6.6 73 +8 +8 997.0 996.5 +12.7 4
19 20.09 З 7 20 км н/о +10.5 +6.9 78 +7 +7 996.7 996.3
20 20.09 ЮЗ 6 13 км н/о +10.6 +6.7 77 +7 +7 996.5 996.0

 

Местоположение метеостанции South Uist Range (Великобритания): широта 57.33 долгота -7.37 высота над уровнем моря 4 м.

В архиве по умолчанию представлена погода в South Uist Range за последнюю неделю. Архивные данные за месяц целиком и за предыдущие месяцы, начиная с января 2011 года, Вы можете получить, выбрав интересующий диапазон дат из раскрывающегося списка и нажав кнопку "Ввод!".


*Определитесь, кто Вы:
робот инопланетянин человек

Внимание! Время в таблицах - всемирное. Для получения местного времени необходимо прибавить поправку, которая в South Uist Range равна 0 ч.

Смотрите также архив погоды в соседних городах и на ближайших метеорологических станциях:

Погода в Skye (Великобритания) (95 км)
Погода в Tiree (Великобритания) (97 км)
Погода в Bealach Na Ba (Великобритания) (102 км)
Погода в Stornoway (Великобритания) (117 км)
Погода в Aultbea (Великобритания) (120 км)
Погода в Loch Glascarnoch (Великобритания) (155 км)
Погода в Aonach Moor (Великобритания) (156 км)
Погода в Tulloch Bridge (Великобритания) (169 км)
Погода в Port Ellen (Великобритания) (196 км)
Погода в Altnaharra (Великобритания) (204 км)

Пояснения к столбцам:

Ветер - указаны скорость ветра в м/с - средняя за 10 мин, порывы в срок и между сроками (в фигурных скобках) и направление, откуда дует ветер: С - северный, СВ - северо-восточный, В - восточный, ЮВ - юго-восточный, Ю - южный, ЮЗ - юго-западный, З - западный, СЗ - северо-западный.
Видимость - горизонтальная дальность видимости в метрах или километрах. При видимости от 1 до 10 км при отсутствии осадков обычно наблюдается дымка, при ухудшении видимости до 1 км и менее - туман. В сухую погоду видимость может ухудшаться дымом, пылью или мглою.
Явления - указаны атмосферные явления, наблюдавшиеся в срок или в последний час перед сроком; фигурными скобками обозначены явления, наблюдавшиеся между сроками (за 1-3 часа до срока); квадратными скобками обозначены град или гололедные отложения с указанием их диаметра в мм.
Облачность - указаны через наклонную черту общая и нижняя облачность в баллах и высота нижней границы облаков в метрах; квадратными скобками обозначены формы облаков: Ci - перистые, Cs - перисто-слоистые, Cc - перисто-кучевые, Ac - высококучевые, As - высокослоистые, Sc - слоисто-кучевые, Ns - слоисто-дождевые, Cu - кучевые, Cb - кучево-дождевые. Подробнее классификацию облаков см. в Атласе облаков (PDF).
T - Температура воздуха - температура, измеренная на высоте 2 м над землей.
Td - Температура точки росы - температура, при понижении до которой содержащийся в воздухе водяной пар достигнет насыщения.
f - Относительная влажность воздуха - влажноcть воздуха, измеренная на высоте 2 м над землей.
Te - Эффективная температура - температура, которую ощущает одетый по сезону человек в тени. Характеристика душности погоды. При расчете учитывается влияние влажности воздуха и скорости ветра на теплоощущения человека.
Tes - Эффективная температура на солнце - температура, которую ощущает человек, с поправкой на солнечный нагрев. Характеристика знойности погоды. Зависит от высоты солнца над горизонтом, облачности и скорости ветра. Ночью, в пасмурную погоду, а также при ветре 12 м/с и более поправка равна нулю.
P - Атмосферное давление - приведенное к уровню моря атмосферное давление.
Po - Атмосферное давление - измеренное на уровне метеостанции атмосферное давление.
Tmin - Минимальная температура - минимум температуры воздуха на высоте 2 м над землей.
Tmax - Максимальная температура - максимум температуры воздуха на высоте 2 м над землей.
R - Количество осадков - Количество выпавших осадков за период времени, мм. При наведении курсора мыши на число - период времени, за который выпало указанное количество осадков.
R24 - Количество осадков - Количество выпавших осадков за 24 часа, мм.
S - Снежный покров - Высота снежного покрова, см. При наведении курсора мыши на число - состояние снежного покрова и степень покрытия местности в баллах.